[[{"header":{"parameterUnit":"m.s-1","parameterCategory":1,"la1":30.2991,"la2":30.254,"lo1":-89.0895,"lo2":-89.0444,"dy":0.0017,"dx":0.0017,"nx":28,"ny":28,"refTime":"2025-12-23T03:00:00:Z","depth":0,"parameterNumber":2,"parameterNumberName":"U-component_of_WINDS"},"data":[0,0,0,0,0,0,0,0,0,0,0,0,0,0,0,0,0,0,0,0,0,0,0,0,0,0,0,0,0,0,0,0,0,0,0,0,0,0,0,0,0,0,0,0,0,0,0,0,0,0,0,0,0,0,0,0,0,0,-1.2268,-1.2268,0,-1.2246,-1.2246,-1.2246,-1.2182,-1.2181,-1.2179,-1.2178,-1.216,-1.2161,-1.2161,0,0,0,0,0,0,0,0,0,0,0,0,0,-1.2257,-1.2258,-1.2268,-1.2268,-1.2268,-1.2247,-1.2246,-1.2246,-1.2182,-1.2181,-1.2179,-1.2177,-1.216,-1.2161,-1.2162,0,0,0,0,0,0,0,0,0,0,0,0,0,-1.2252,-1.2258,-1.2268,-1.2233,-1.223,-1.2247,-1.2246,-1.2246,-1.2183,-1.2181,-1.2179,-1.2177,-1.2159,-1.216,-1.2162,-1.2212,0,0,-1.2165,-1.2166,0,0,0,0,0,0,0,0,-1.2252,-1.2252,-1.2239,-1.2236,-1.2232,-1.2215,-1.2236,-1.2235,-1.2183,-1.2201,-1.2178,-1.2176,-1.218,-1.2179,-1.218,-1.2211,-1.221,-1.2166,-1.2166,-1.2167,-1.2167,0,0,0,0,0,0,0,-1.2253,-1.2253,-1.226,-1.2239,-1.2234,-1.222,-1.2216,-1.2235,-1.2203,-1.2199,-1.2194,-1.2193,-1.2178,-1.2179,-1.2179,-1.221,-1.2166,-1.2167,-1.2167,-1.2168,-1.228,-1.2283,0,0,0,0,0,0,-1.2258,-1.2254,-1.226,-1.2259,-1.2237,-1.2222,-1.2218,-1.2223,-1.2202,-1.2197,-1.2194,-1.219,-1.2178,-1.2178,-1.2178,-1.2236,-1.2167,-1.2168,-1.2169,-1.2278,-1.2281,-1.2283,0,0,0,0,0,0,-1.2258,-1.2259,-1.2261,-1.2255,-1.2254,-1.2224,-1.223,-1.2223,-1.2224,-1.2199,-1.2193,-1.2201,-1.2176,-1.2177,-1.2204,-1.2235,-1.2169,-1.217,-1.2276,-1.2279,-1.2282,-1.2352,0,0,0,0,0,0,-1.2257,-1.2259,-1.2277,-1.2256,-1.2255,-1.2286,-1.2231,-1.2224,-1.2226,-1.222,-1.2204,-1.2199,-1.2175,-1.2202,-1.2205,-1.2235,-1.2171,-1.2273,-1.2277,-1.2281,-1.2347,-1.2357,-1.2366,0,0,0,0,0,-1.2257,-1.2299,-1.2279,-1.228,-1.2277,-1.2288,-1.2288,-1.2258,-1.2229,-1.2247,-1.2231,-1.22,-1.223,-1.2205,-1.2208,-1.2239,-1.2271,-1.2276,-1.2281,-1.2343,-1.2355,-1.2366,0,0,0,0,0,0,-1.2326,-1.2295,-1.2273,-1.2308,-1.2301,-1.2277,-1.23,-1.2272,-1.2274,-1.2268,-1.2232,-1.2229,-1.2261,-1.2252,-1.2225,-1.2286,-1.2245,-1.2251,-1.2291,-1.2303,-1.2313,-1.2315,-1.2172,0,0,0,0,0,-1.2345,-1.2356,-1.2329,-1.2363,-1.236,-1.2331,-1.2335,-1.2312,-1.2304,-1.2301,-1.2286,-1.2281,-1.2289,-1.2295,-1.2301,-1.2344,-1.2341,-1.2367,-1.2377,-1.2385,-1.2391,-1.2414,-1.2426,-1.23,-1.23,-1.23,0,0,-1.2386,-1.237,-1.2379,-1.2376,-1.2368,-1.2381,-1.2329,-1.2345,-1.2355,-1.2304,-1.2328,-1.2317,-1.2308,-1.2344,-1.2359,-1.2338,-1.2425,-1.2391,-1.2398,-1.24,-1.242,-1.2432,-1.2443,-1.2303,-1.2303,-1.2302,0,0,-1.2466,-1.2454,-1.2481,-1.2474,-1.2462,-1.2441,-1.2448,-1.2428,-1.2418,-1.2442,-1.2404,-1.2415,-1.243,-1.2425,-1.2425,-1.2502,-1.2474,-1.2505,-1.2557,-1.2579,-1.2589,-1.2598,-1.2627,-1.2637,-1.2511,-1.2511,-1.2511,0,-1.2518,-1.2535,-1.2499,-1.2518,-1.2518,-1.247,-1.2498,-1.2493,-1.2484,-1.2486,-1.2461,-1.2479,-1.2469,-1.2503,-1.2522,-1.2523,-1.253,-1.2508,-1.259,-1.2599,-1.2606,-1.2634,-1.2644,-1.2515,-1.2514,-1.2514,-1.2513,0,-1.26,-1.2613,-1.2636,-1.2627,-1.263,-1.2653,-1.2622,-1.2629,-1.2605,-1.2588,-1.2613,-1.2599,-1.2602,-1.2608,-1.2586,-1.2639,-1.2626,-1.2597,-1.2555,-1.2623,-1.2648,-1.2658,-1.252,-1.2519,-1.2518,-1.2517,0,0,-1.2726,-1.2695,-1.2705,-1.27,-1.2682,-1.2692,-1.2713,-1.2714,-1.2721,-1.2716,-1.2734,-1.2746,-1.2719,-1.2718,-1.2695,-1.2715,-1.2778,-1.2683,-1.2682,-1.2702,-1.2837,-1.2861,-1.2873,-1.2758,-1.276,-1.2761,-1.2838,0,-1.2803,-1.2836,-1.2804,-1.2844,-1.2856,-1.281,-1.2828,-1.282,-1.2804,-1.2812,-1.2794,-1.2805,-1.2766,-1.2766,-1.2783,-1.2766,-1.2805,-1.276,-1.2776,-1.2777,-1.2782,-1.2886,-1.2911,-1.2985,-1.2847,-1.2849,-1.285,0,-1.2898,-1.2896,-1.2937,-1.2916,-1.292,-1.2937,-1.2935,-1.2943,-1.2932,-1.2919,-1.2918,-1.2889,-1.2909,-1.2866,-1.2894,-1.2865,-1.2869,-1.2861,-1.2863,-1.2866,-1.2819,-1.2893,-1.3007,-1.3019,-1.2865,-1.2864,-1.2863,0,-1.2988,-1.2995,-1.302,-1.3018,-1.2993,-1.3006,-1.2997,-1.2984,-1.2987,-1.2986,-1.2987,-1.2989,-1.299,-1.2992,-1.2964,-1.2936,-1.2996,-1.2951,-1.2988,-1.2989,-1.3005,-1.3005,-1.3124,-1.3004,-1.3004,-1.3004,-1.3003,0,-1.3079,-1.3106,-1.306,-1.3077,-1.3106,-1.3068,-1.3099,-1.3085,-1.3073,-1.3087,-1.3046,-1.306,-1.3021,-1.3031,-1.3009,-1.3036,-1.3037,-1.3028,-1.3023,-1.3033,-1.3034,-1.3037,-1.3032,-1.3006,-1.3006,-1.3005,-1.3005,0,-1.3185,-1.3155,-1.318,-1.3154,-1.3148,-1.3171,-1.315,-1.3164,-1.3144,-1.3161,-1.3163,-1.3133,-1.3142,-1.3114,-1.3119,-1.3104,-1.3144,-1.3129,-1.3148,-1.3144,-1.3183,-1.318,-1.3309,-1.3325,-1.3194,-1.3195,-1.3196,0,-1.3246,-1.3266,-1.3242,-1.3247,-1.3239,-1.3248,-1.325,-1.3213,-1.3217,-1.3206,-1.3222,-1.3228,-1.323,-1.3247,-1.3227,-1.323,-1.3216,-1.3261,-1.3217,-1.3227,-1.3219,-1.3219,-1.3222,-1.3272,-1.3273,-1.3274,-1.3275,0,-1.3359,-1.3342,-1.3346,-1.3344,-1.3347,-1.3345,-1.334,-1.3346,-1.3307,-1.3314,-1.3322,-1.3324,-1.3328,-1.3334,-1.3333,-1.3324,-1.3295,-1.3289,-1.3298,-1.331,-1.3321,-1.3317,-1.3175,-1.3287,-1.3286,-1.3285,-1.3284,-1.3284,-1.3445,-1.3461,-1.3446,-1.3451,-1.3443,-1.3438,-1.3451,-1.3431,-1.3437,-1.3437,-1.3415,-1.3428,-1.3416,-1.3411,-1.3405,-1.3416,-1.3395,-1.3408,-1.3411,-1.3416,-1.3423,-1.3317,-1.3415,-1.3415,-1.3414,-1.3414,-1.3414,0,-1.3557,-1.3544,-1.3549,-1.3543,-1.3547,-1.3515,-1.3507,-1.3514,-1.3525,-1.3516,-1.3519,-1.3528,-1.3534,-1.3513,-1.3516,-1.3528,-1.3514,-1.353,-1.353,-1.3529,-1.344,-1.3433,-1.3541,-1.3541,-1.3541,-1.3541,-1.3541,-1.3541,-1.3616,-1.3641,-1.3622,-1.3643,-1.363,-1.3641,-1.364,-1.3636,-1.3628,-1.364,-1.3644,-1.3629,-1.3616,-1.3617,-1.3621,-1.3615,-1.3619,-1.364,-1.363,-1.3548,-1.3535,-1.3524,-1.3517,-1.3641,-1.3641,-1.3717,-1.3718,-1.3719]},{"header":{"parameterUnit":"m.s-1","parameterCategory":1,"la1":30.2991,"la2":30.254,"lo1":-89.0895,"lo2":-89.0444,"dy":0.0017,"dx":0.0017,"nx":28,"ny":28,"refTime":"2025-12-23T03:00:00:Z","depth":0,"parameterNumber":3,"parameterNumberName":"V-component_of_WINDS"},"data":[0,0,0,0,0,0,0,0,0,0,0,0,0,0,0,0,0,0,0,0,0,0,0,0,0,0,0,0,0,0,0,0,0,0,0,0,0,0,0,0,0,0,0,0,0,0,0,0,0,0,0,0,0,0,0,0,0,0,-0.9066,-0.9067,0,-0.9071,-0.9071,-0.9071,-0.9076,-0.9076,-0.9076,-0.9076,-0.9079,-0.9079,-0.9079,0,0,0,0,0,0,0,0,0,0,0,0,0,-0.906,-0.906,-0.9066,-0.9067,-0.9067,-0.9071,-0.9071,-0.9071,-0.9076,-0.9076,-0.9076,-0.9076,-0.9079,-0.9079,-0.9079,0,0,0,0,0,0,0,0,0,0,0,0,0,-0.9064,-0.906,-0.9066,-0.9069,-0.907,-0.9071,-0.9071,-0.9071,-0.9076,-0.9076,-0.9076,-0.9076,-0.9079,-0.9079,-0.908,-0.9078,0,0,-0.908,-0.908,0,0,0,0,0,0,0,0,-0.9063,-0.9064,-0.9069,-0.9069,-0.907,-0.9073,-0.907,-0.9073,-0.9076,-0.9073,-0.9076,-0.9076,-0.9077,-0.9077,-0.9078,-0.9078,-0.9078,-0.908,-0.908,-0.908,-0.908,0,0,0,0,0,0,0,-0.9063,-0.9064,-0.9068,-0.9069,-0.9069,-0.907,-0.9071,-0.9071,-0.9075,-0.9073,-0.9074,-0.9074,-0.9077,-0.9078,-0.9078,-0.9078,-0.908,-0.908,-0.908,-0.908,-0.9076,-0.9076,0,0,0,0,0,0,-0.9063,-0.9063,-0.9068,-0.9068,-0.9067,-0.907,-0.9071,-0.9072,-0.9075,-0.9075,-0.9074,-0.9075,-0.9078,-0.9078,-0.9078,-0.9076,-0.908,-0.908,-0.908,-0.9076,-0.9076,-0.9076,0,0,0,0,0,0,-0.9063,-0.9063,-0.9068,-0.9066,-0.9067,-0.907,-0.9071,-0.9072,-0.9072,-0.9075,-0.9076,-0.9074,-0.9078,-0.9078,-0.9078,-0.9076,-0.908,-0.908,-0.9077,-0.9076,-0.9076,-0.9072,0,0,0,0,0,0,-0.9062,-0.9063,-0.9063,-0.9066,-0.9067,-0.9068,-0.9071,-0.9072,-0.9073,-0.9073,-0.9075,-0.9076,-0.9078,-0.9078,-0.9078,-0.9076,-0.908,-0.9077,-0.9076,-0.9076,-0.9072,-0.9071,-0.9071,0,0,0,0,0,-0.9062,-0.9061,-0.9063,-0.9063,-0.9067,-0.9068,-0.9068,-0.9071,-0.9072,-0.9072,-0.9074,-0.9076,-0.9076,-0.9078,-0.9078,-0.9076,-0.9077,-0.9076,-0.9076,-0.9072,-0.9071,-0.9071,0,0,0,0,0,0,-0.9058,-0.9062,-0.9064,-0.9064,-0.9066,-0.9069,-0.9068,-0.907,-0.9071,-0.9071,-0.9074,-0.9075,-0.9074,-0.9075,-0.9076,-0.9074,-0.9077,-0.9076,-0.9074,-0.9073,-0.9072,-0.9072,-0.908,0,0,0,0,0,-0.9057,-0.9058,-0.9061,-0.9061,-0.9062,-0.9065,-0.9066,-0.9067,-0.9069,-0.907,-0.9071,-0.9072,-0.9073,-0.9073,-0.9073,-0.9072,-0.9072,-0.9071,-0.907,-0.907,-0.907,-0.9068,-0.9067,-0.9075,-0.9075,-0.9075,0,0,-0.9055,-0.9058,-0.9058,-0.9061,-0.9062,-0.9062,-0.9066,-0.9066,-0.9066,-0.907,-0.9069,-0.907,-0.9072,-0.9071,-0.907,-0.9072,-0.9067,-0.907,-0.9069,-0.9069,-0.9067,-0.9067,-0.9066,-0.9075,-0.9075,-0.9075,0,0,-0.9052,-0.9055,-0.9054,-0.9056,-0.9058,-0.9059,-0.9059,-0.9062,-0.9063,-0.9063,-0.9065,-0.9065,-0.9066,-0.9066,-0.9067,-0.9063,-0.9064,-0.9063,-0.906,-0.9058,-0.9057,-0.9057,-0.9055,-0.9054,-0.9062,-0.9062,-0.9062,0,-0.905,-0.9051,-0.9054,-0.9054,-0.9055,-0.9058,-0.9057,-0.9058,-0.906,-0.906,-0.9062,-0.9062,-0.9063,-0.9062,-0.9061,-0.9061,-0.9061,-0.9062,-0.9057,-0.9057,-0.9056,-0.9054,-0.9053,-0.9062,-0.9062,-0.9062,-0.9062,0,-0.9048,-0.9048,-0.9048,-0.905,-0.905,-0.905,-0.9052,-0.9052,-0.9054,-0.9055,-0.9054,-0.9056,-0.9056,-0.9056,-0.9057,-0.9054,-0.9055,-0.9057,-0.9059,-0.9055,-0.9053,-0.9052,-0.9062,-0.9062,-0.9062,-0.9062,0,0,-0.9043,-0.9046,-0.9045,-0.9046,-0.9048,-0.9048,-0.9047,-0.9048,-0.9048,-0.9049,-0.9048,-0.9048,-0.9049,-0.9049,-0.9051,-0.905,-0.9045,-0.9051,-0.9051,-0.905,-0.9041,-0.9039,-0.9038,-0.9046,-0.9046,-0.9046,-0.904,0,-0.904,-0.9039,-0.9042,-0.904,-0.904,-0.9043,-0.9042,-0.9043,-0.9044,-0.9043,-0.9044,-0.9044,-0.9046,-0.9047,-0.9045,-0.9046,-0.9043,-0.9047,-0.9045,-0.9045,-0.9044,-0.9037,-0.9036,-0.9031,-0.904,-0.904,-0.904,0,-0.9037,-0.9037,-0.9036,-0.9037,-0.9037,-0.9037,-0.9037,-0.9037,-0.9037,-0.9038,-0.9038,-0.9039,-0.9038,-0.904,-0.9038,-0.904,-0.9039,-0.9039,-0.9039,-0.9039,-0.9042,-0.9036,-0.9029,-0.9028,-0.9039,-0.9039,-0.9039,0,-0.9032,-0.9033,-0.9032,-0.9032,-0.9034,-0.9033,-0.9034,-0.9034,-0.9034,-0.9034,-0.9034,-0.9033,-0.9033,-0.9032,-0.9033,-0.9035,-0.9031,-0.9033,-0.903,-0.903,-0.9029,-0.9029,-0.9021,-0.903,-0.903,-0.903,-0.903,0,-0.9029,-0.9028,-0.903,-0.903,-0.9028,-0.903,-0.9028,-0.9029,-0.9029,-0.9028,-0.903,-0.9029,-0.9031,-0.903,-0.903,-0.9028,-0.9028,-0.9028,-0.9028,-0.9027,-0.9027,-0.9027,-0.9027,-0.9029,-0.9029,-0.9029,-0.9029,0,-0.9024,-0.9026,-0.9025,-0.9026,-0.9026,-0.9025,-0.9026,-0.9025,-0.9025,-0.9024,-0.9024,-0.9025,-0.9023,-0.9024,-0.9023,-0.9024,-0.902,-0.9021,-0.902,-0.902,-0.9017,-0.9017,-0.9008,-0.9006,-0.9016,-0.9016,-0.9016,0,-0.9022,-0.9021,-0.9022,-0.9021,-0.9022,-0.9021,-0.9021,-0.9022,-0.9022,-0.9021,-0.902,-0.9019,-0.9018,-0.9015,-0.9016,-0.9014,-0.9015,-0.9012,-0.9015,-0.9014,-0.9014,-0.9014,-0.9013,-0.9011,-0.9011,-0.9011,-0.9011,0,-0.9017,-0.9017,-0.9017,-0.9017,-0.9016,-0.9016,-0.9016,-0.9015,-0.9016,-0.9015,-0.9014,-0.9013,-0.9011,-0.901,-0.9008,-0.9008,-0.9009,-0.901,-0.9009,-0.9008,-0.9007,-0.9007,-0.9018,-0.901,-0.901,-0.901,-0.901,-0.901,-0.9013,-0.9012,-0.9012,-0.9011,-0.9011,-0.9011,-0.9009,-0.901,-0.9009,-0.9007,-0.9008,-0.9006,-0.9005,-0.9004,-0.9003,-0.9001,-0.9002,-0.9001,-0.9001,-0.9,-0.9,-0.9008,-0.9001,-0.9001,-0.9001,-0.9001,-0.9001,0,-0.9008,-0.9008,-0.9007,-0.9006,-0.9005,-0.9007,-0.9006,-0.9005,-0.9003,-0.9003,-0.9001,-0.8999,-0.8997,-0.8997,-0.8995,-0.8993,-0.8994,-0.8993,-0.8992,-0.8992,-0.8999,-0.9,-0.8992,-0.8992,-0.8992,-0.8992,-0.8992,-0.8992,-0.9005,-0.9003,-0.9003,-0.9001,-0.9001,-0.8999,-0.8998,-0.8997,-0.8997,-0.8994,-0.8992,-0.8992,-0.8991,-0.8989,-0.8987,-0.8987,-0.8986,-0.8984,-0.8984,-0.8991,-0.8992,-0.8993,-0.8993,-0.8984,-0.8984,-0.8978,-0.8978,-0.8978]}]]